Weather History for Cody, WY

Change the Weather History Date:

Saturday, May 11, 2013

  Actual Average Record
Temperature  
Mean Temperature 54 °F -  
Max Temperature 71 °F 59 °F 89 °F (1936)
Min Temperature 37 °F 37 °F 20 °F (1953)
Degree Days  
Heating Degree Days 11    
Growing Degree Days 4 (Base 50)    
Moisture  
Dew Point 33 °F    
Average Humidity 43    
Maximum Humidity 71    
Minimum Humidity 25    
Precipitation  
Precipitation 0.00 in - - ()
Sea Level Pressure  
Sea Level Pressure 30.28 in    
Wind  
Wind Speed 4 mph (SE)    
Max Wind Speed 15 mph    
Max Gust Speed 31 mph    
Visibility 10 miles    
Events      
Averages and records for this station are not official NWS values.
T = Trace of Precipitation, MM = Missing Value Source: NWS Daily Summary

Daily Weather History Graph

Daily Weather History Graph

Search for Another Location

Airport:

Trip Planner

Search our weather history database for the weather conditions in past years. The results will help you decide how hot, cold, wet, or windy it might be!

Date:

Astronomy

May. 11, 2013 Rise Set
Actual Time 5:52 AM MDT 8:32 PM MDT
Civil Twilight 5:19 AM MDT 9:06 PM MDT
Nautical Twilight 4:37 AM MDT 9:48 PM MDT
Astronomical Twilight 3:49 AM MDT 10:37 PM MDT
Moon 7:01 AM MDT (5/11) 10:17 PM MDT (5/11)
Length of Visible Light 15h 46m
Length of Day
14h 40m
Waxing Crescent, 3% of the Moon is Illuminated
May 11
Waxing Crescent
May 17
First Quarter
May 24
Full
May 31
Last Quarter
Jun 8
New

Hourly Weather History & Observations

Time (MDT) Temp. Windchill Dew Point Humidity Pressure Visibility Wind Dir Wind Speed Gust Speed Precip Events Conditions
12:15 AM 48.2 °F - 30.2 °F 50% 30.38 in 10.0 mi NNW 3.5 mph - N/A   Clear
12:55 AM 46.4 °F 43.5 °F 28.4 °F 50% 30.39 in 10.0 mi NW 5.8 mph - N/A   Clear
1:15 AM 46.4 °F - 28.4 °F 50% 30.38 in 10.0 mi Calm Calm - N/A   Clear
1:35 AM 46.4 °F - 28.4 °F 50% 30.38 in 10.0 mi Calm Calm - N/A   Clear
1:55 AM 44.6 °F - 30.2 °F 57% 30.38 in 10.0 mi Calm Calm - N/A   Clear
2:15 AM 42.8 °F - 28.4 °F 57% 30.39 in 10.0 mi Calm Calm - N/A   Clear
2:35 AM - - - N/A% 30.38 in 10.0 mi Calm Calm - N/A   Clear
2:55 AM 39.2 °F 35.9 °F 30.2 °F 70% 30.38 in 10.0 mi South 4.6 mph - N/A   Clear
3:15 AM 39.2 °F 35.9 °F 28.4 °F 65% 30.39 in 10.0 mi SSE 4.6 mph - N/A   Clear
3:35 AM 39.2 °F 37.0 °F 28.4 °F 65% 30.38 in 10.0 mi SSE 3.5 mph - N/A   Clear
3:55 AM 39.2 °F - 28.4 °F 65% 30.39 in 10.0 mi Calm Calm - N/A   Clear
4:15 AM 39.2 °F 37.0 °F 28.4 °F 65% 30.39 in 10.0 mi SSW 3.5 mph - N/A   Clear
4:55 AM 37.4 °F 32.8 °F 28.4 °F 70% 30.39 in 10.0 mi South 5.8 mph - N/A   Clear
5:15 AM 37.4 °F 33.8 °F 28.4 °F 70% 30.38 in 10.0 mi South 4.6 mph - N/A   Clear
5:55 AM 39.2 °F - 30.2 °F 70% 30.37 in 10.0 mi Calm Calm - N/A   Clear
6:15 AM 42.8 °F - 32.0 °F 66% 30.38 in 10.0 mi Calm Calm - N/A   Clear
6:35 AM 42.8 °F - 33.8 °F 70% 30.38 in 10.0 mi Calm Calm - N/A   Clear
6:55 AM 42.8 °F - 33.8 °F 70% 30.38 in 10.0 mi Calm Calm - N/A   Clear
7:35 AM 44.6 °F - 35.6 °F 71% 30.38 in 10.0 mi Calm Calm - N/A   Mostly Cloudy
7:55 AM 48.2 °F - 35.6 °F 62% 30.37 in 10.0 mi WSW 4.6 mph - N/A   Scattered Clouds
8:15 AM 51.8 °F - 33.8 °F 50% 30.37 in 10.0 mi SSW 12.7 mph - N/A   Clear
8:35 AM 51.8 °F - 33.8 °F 50% 30.36 in 10.0 mi SSW 10.4 mph - N/A   Clear
9:35 AM 55.4 °F - 33.8 °F 44% 30.35 in 10.0 mi SSE 6.9 mph - N/A   Clear
9:55 AM 57.2 °F - 33.8 °F 41% 30.34 in 10.0 mi SSE 8.1 mph - N/A   Clear
10:35 AM 60.8 °F - 33.8 °F 36% 30.32 in 10.0 mi South 8.1 mph - N/A   Clear
10:55 AM 62.6 °F - 33.8 °F 34% 30.31 in 10.0 mi SSE 5.8 mph - N/A   Clear
11:15 AM 64.4 °F - 33.8 °F 32% 30.30 in 10.0 mi SE 10.4 mph - N/A   Clear
11:35 AM 64.4 °F - 33.8 °F 32% 30.29 in 10.0 mi East 8.1 mph - N/A   Scattered Clouds
12:35 PM 68.0 °F - 33.8 °F 28% 30.27 in 10.0 mi ESE 4.6 mph - N/A   Clear
12:55 PM 68.0 °F - 33.8 °F 28% 30.25 in 10.0 mi ENE 6.9 mph - N/A   Clear
1:15 PM 69.8 °F - 33.8 °F 27% 30.25 in 10.0 mi SE 5.8 mph - N/A   Partly Cloudy
1:35 PM 68.0 °F - 33.8 °F 28% 30.24 in 10.0 mi ENE 8.1 mph - N/A   Mostly Cloudy
2:15 PM 69.8 °F - 33.8 °F 27% 30.23 in 10.0 mi NW 8.1 mph - N/A   Overcast
2:35 PM 69.8 °F - 33.8 °F 27% 30.23 in 10.0 mi West 5.8 mph - N/A   Overcast
2:55 PM 69.8 °F - 35.6 °F 28% 30.22 in 10.0 mi Calm Calm - N/A   Mostly Cloudy
3:15 PM 71.6 °F - 33.8 °F 25% 30.21 in 10.0 mi East 6.9 mph - N/A   Mostly Cloudy
3:35 PM 66.2 °F - 35.6 °F 32% 30.22 in 10.0 mi North 6.9 mph 31.1 mph N/A   Mostly Cloudy
3:55 PM 68.0 °F - 33.8 °F 28% 30.23 in 10.0 mi North 13.8 mph 21.9 mph N/A   Overcast
4:15 PM 69.8 °F - 35.6 °F 28% 30.21 in 10.0 mi NNE 15.0 mph - N/A   Scattered Clouds
4:35 PM 68.0 °F - 35.6 °F 30% 30.21 in 10.0 mi NE 8.1 mph - N/A   Scattered Clouds
4:55 PM 68.0 °F - 35.6 °F 30% 30.21 in 10.0 mi Calm Calm - N/A   Partly Cloudy
5:15 PM 68.0 °F - 35.6 °F 30% 30.21 in 10.0 mi Calm Calm - N/A   Scattered Clouds
5:55 PM 68.0 °F - 33.8 °F 28% 30.19 in 10.0 mi NE 5.8 mph - N/A   Clear
6:15 PM 68.0 °F - 32.0 °F 26% 30.19 in 10.0 mi East 4.6 mph - N/A   Clear
6:35 PM 69.8 °F - 33.8 °F 27% 30.18 in 10.0 mi ESE 4.6 mph - N/A   Clear
6:55 PM 69.8 °F - 32.0 °F 25% 30.18 in 10.0 mi East 4.6 mph - N/A   Clear
7:15 PM 68.0 °F - 33.8 °F 28% 30.17 in 10.0 mi NE 3.5 mph - N/A   Scattered Clouds
8:15 PM 66.2 °F - 33.8 °F 30% 30.17 in 10.0 mi Calm Calm - N/A   Overcast
8:35 PM 64.4 °F - 33.8 °F 32% 30.18 in 10.0 mi Calm Calm - N/A   Mostly Cloudy
8:55 PM 62.6 °F - 35.6 °F 37% 30.18 in 10.0 mi Calm Calm - N/A   Clear
9:15 PM 62.6 °F - 35.6 °F 37% 30.19 in 10.0 mi WSW 3.5 mph - N/A   Partly Cloudy
9:55 PM 59.0 °F - 35.6 °F 42% 30.19 in 10.0 mi SSE 6.9 mph - N/A   Overcast
10:15 PM 59.0 °F - 35.6 °F 42% 30.19 in 10.0 mi SSE 6.9 mph - N/A   Overcast
10:36 PM 59.0 °F - 35.6 °F 42% 30.19 in 10.0 mi NNW 4.6 mph - N/A   Mostly Cloudy
10:55 PM 59.0 °F - 35.6 °F 42% 30.19 in 10.0 mi Calm Calm - N/A   Overcast
11:15 PM 57.2 °F - 35.6 °F 44% 30.19 in 10.0 mi Calm Calm - N/A   Overcast
11:35 PM 59.0 °F - 35.6 °F 42% 30.19 in 10.0 mi WSW 3.5 mph - N/A   Overcast
11:55 PM 60.8 °F - 35.6 °F 39% 30.19 in 10.0 mi WSW 4.6 mph - N/A   Mostly Cloudy